Location: Brunsen
(51.8651°N, 9.8610°E)
Time: 20:54:14
(UTC+00:00)

CZ-2C R/B - Pass Details

Date: 19 August 2024
Orbit: 782 x 869 km, 98.3° (Epoch: 07 September)

Event Time Altitude Azimuth Distance (km) Brightness Sun altitude
Exits shadow 01:19:46 40° 188° (S) 1,211 3.0 -20.8°
Maximum altitude 01:21:42 68° 257° (WSW) 895 2.6 -20.7°
Drops below altitude 10° 01:27:02 10° 341° (NNW) 2,417 5.6 -20.2°
Sets 01:29:23 0° 344° (NNW) 3,341 6.4 -20.0°
